Weather in Dugino

Russia / Smolensk Oblast     55°41′18″N   34°11′30″E
temp.,
°C
wind,
m/s
gust,
m/s
humid.,
%
clouds,
%
prec.,
mm/h
press.,
hPa
HPBL,
m
18 april, sun
sun1800:00+8ne6127020 0.0 1020380
03:00+6ne6137123 0.0 1020377
06:00+5ne6137473 0.0 1020430
09:00+7ene71064100 0.0 1021685
12:00+11ene794818 0.0 10211443
15:00+13ene8104391 0.0 10202145
18:00+12ene5951100 0.0 1021741
21:00+7ese3781100 0.1 1023278
19 april, mon
mon1900:00+7nne378297 0.0 1023367
03:00+5ne5984100 0.0 1024300
06:00+5ne5989100 0.0 1024589
09:00+5ne6988100 0.1 1024800
12:00+6ne5983100 0.1 1025756
15:00+7ene4876100 0.1 10251062
18:00+7ene5875100 0.1 1024953
21:00+6ne4980100 0.2 1025705
20 april, tue
tue2000:00+3ne3882100 0.0 1024261
03:00+3ene498399 0.1 1023610
06:00+2ene597799 0.0 1022575
09:00+2ene5887100 0.2 1022645
12:00+3ene6887100 0.2 1020749
15:00+3ene5997100 0.3 1019505
18:00+3ene51096100 0.1 1017555
21:00+2ne51097100 0.3 1014501
21 april, wed
wed2100:00+1nne61198100 2.7 1010391
03:00+1nne61399100 8.7 1005646
06:00+1nne51099100 2.8 1002567
09:00+1n47100100 4.3 1000305
12:00+1wnw58100100 0.5 1000447
15:00+2w611100100 2.3 1002730
18:00+2wsw71399100 0.4 1004732
21:00+2wsw71399100 0.9 1007722
22 april, thu
thu2200:00+2sw41097100 0.1 1009330
03:00+2ssw41195100 0.1 1011246
06:00+1ssw3895100 0.0 1012158
09:00+5sw4686100 0.0 1014270
12:00+10ssw466646 0.0 10151116
15:00+12ssw45538 0.0 10141532
18:00+11sse366467 0.0 1014342
21:00+7se4109237 0.0 1014193